CDT,Max TemperatureF,Mean TemperatureF,Min TemperatureF,Max Dew PointF,MeanDew PointF,Min DewpointF,Max Humidity, Mean Humidity, Min Humidity, Max Sea Level PressureIn, Mean Sea Level PressureIn, Min Sea Level PressureIn, Max VisibilityMiles, Mean VisibilityMiles, Min VisibilityMiles, Max Wind SpeedMPH, Mean Wind SpeedMPH, Max Gust SpeedMPH,PrecipitationIn, CloudCover, Events, WindDirDegrees
2013-7-1,88,79,70,56,51,43,57,40,23,30.06,30.00,29.92,10,10,10,20,8,26,T,3,,43
2013-7-2,88,73,57,53,46,40,72,46,20,30.12,30.05,29.98,10,10,9,15,4,25,0.00,0,,56
2013-7-3,90,75,60,50,44,39,56,37,18,30.04,29.98,29.89,10,10,10,13,6,24,0.00,0,,132
2013-7-4,94,81,67,51,48,45,51,36,20,29.94,29.89,29.83,10,10,10,18,11,35,0.00,0,,165
2013-7-5,97,85,73,56,50,45,49,34,19,29.92,29.85,29.78,10,10,10,22,12,26,0.00,0,,164
2013-7-6,97,86,74,61,54,49,64,43,21,29.88,29.84,29.76,10,10,10,22,13,29,0.00,0,,155
2013-7-7,97,86,74,65,59,55,68,47,25,29.95,29.89,29.84,10,10,10,18,11,24,0.00,1,,143
2013-7-8,98,87,75,70,65,60,79,55,30,30.02,29.96,29.91,10,10,10,23,10,32,0.00,1,,158
2013-7-9,97,86,75,69,64,59,79,55,30,30.07,30.00,29.93,10,10,10,20,11,38,0.00,0,,189
2013-7-10,100,89,78,68,62,55,67,46,24,30.03,29.96,29.86,10,10,10,17,9,23,0.00,0,,178
2013-7-11,99,89,79,67,63,59,58,44,30,29.95,29.89,29.82,10,10,10,21,8,28,0.00,1,,153
2013-7-12,101,88,75,65,60,56,62,43,24,29.91,29.87,29.82,10,10,10,23,9,29,0.00,0,,156
2013-7-13,102,89,75,60,56,52,48,34,19,29.95,29.88,29.81,10,10,10,16,7,24,0.00,1,,161
2013-7-14,91,78,64,67,61,57,100,67,34,30.01,29.88,29.81,10,9,2,28,14,32,1.08,3,Rain-Thunderstorm,102
2013-7-15,68,66,63,67,64,32,100,97,93,30.07,30.02,29.94,10,6,1,14,7,22,1.26,8,Rain,23
2013-7-16,79,73,67,72,69,64,100,87,74,30.17,30.09,30.01,10,7,2,18,7,24,1.87,7,Rain,116
2013-7-17,80,75,69,72,70,67,100,87,74,30.27,30.18,30.12,10,10,9,29,7,39,0.18,5,Rain,96
2013-7-18,87,78,69,71,69,64,100,74,48,30.23,30.14,30.01,10,10,10,15,6,25,0.00,3,,159
2013-7-19,91,81,70,71,66,59,97,67,37,30.05,29.99,29.89,10,10,10,12,4,15,0.00,0,,184
2013-7-20,92,82,71,67,64,60,84,60,36,29.95,29.89,29.80,10,10,10,14,7,20,0.00,0,,169
2013-7-21,93,83,72,68,65,63,79,59,38,29.91,29.86,29.80,10,10,10,16,8,23,0.00,0,,180
2013-7-22,93,84,75,71,68,67,82,63,44,30.01,29.89,29.81,10,10,10,18,10,24,0.00,2,,183
2013-7-23,95,86,77,72,69,65,79,61,43,30.00,29.88,29.80,10,10,10,20,10,28,0.00,1,,179
2013-7-24,95,85,75,69,65,59,65,53,41,29.94,29.88,29.83,10,10,10,15,8,18,0.00,0,,158
2013-7-25,91,84,76,72,69,66,79,62,44,30.02,29.96,29.92,10,10,10,20,8,25,0.05,1,Rain,136
2013-7-26,96,86,75,70,66,62,69,55,41,30.02,29.94,29.90,10,10,10,21,10,26,T,1,,304
2013-7-27,90,79,68,66,60,53,84,57,29,30.03,29.98,29.89,10,10,10,15,7,25,0.00,0,,54
2013-7-28,92,79,66,66,62,58,87,62,36,30.02,29.89,29.81,10,10,10,16,9,31,0.00,1,,143
2013-7-29,96,87,78,70,67,60,74,54,33,29.92,29.87,29.84,10,10,10,21,11,26,0.00,1,,165
2013-7-30,95,87,78,70,67,60,71,55,39,30.01,29.94,29.90,10,10,10,20,11,25,0.00,0,,173
2013-7-31,101,90,78,70,66,60,67,50,33,30.06,29.98,29.91,10,10,10,25,6,40,T,1,,213